| time (UTC) | temp F | wind direction | speed knots | gust knots | rain 1hr in | rain 24hr in | rain mn in | humidity % | barometer mb |
| 20260503004529 | 44 | 297 | 0.0 | 0.0 | 0.00 | 0.00 | 0.00 | 56 | 1014.2 |
| 20260503003040 | 48 | 309 | 0.0 | 0.0 | 0.00 | 0.00 | 0.00 | 45 | 1014.3 |
| 20260503001547 | 50 | 323 | 0.0 | 0.9 | 0.00 | 0.00 | 0.00 | 41 | 1014.4 |
| 20260503000027 | 50 | 56 | 0.9 | 1.7 | 0.00 | 0.00 | 0.00 | 32 | 1014.5 |
| 20260502234533 | 50 | 47 | 0.0 | 2.6 | 0.00 | 0.00 | 0.00 | 32 | 1014.6 |
| 20260502233031 | 50 | 357 | 0.9 | 1.7 | 0.00 | 0.00 | 0.00 | 33 | 1014.7 |
| 20260502231528 | 50 | 299 | 0.9 | 2.6 | 0.00 | 0.00 | 0.00 | 31 | 1014.9 |
| 20260502230033 | 49 | 32 | 0.9 | 3.5 | 0.00 | 0.00 | 0.00 | 31 | 1015.0 |
| 20260502224506 | 48 | 60 | 0.9 | 3.5 | 0.00 | 0.00 | 0.00 | 32 | 1015.2 |
| 20260502223024 | 48 | 316 | 0.9 | 5.2 | 0.00 | 0.00 | 0.00 | 33 | 1015.3 |
| 20260502221527 | 48 | 311 | 2.6 | 6.1 | 0.00 | 0.00 | 0.00 | 33 | 1015.5 |
| 20260502220033 | 48 | 312 | 1.7 | 6.1 | 0.00 | 0.00 | 0.00 | 34 | 1015.5 |
| 20260502214530 | 48 | 326 | 2.6 | 4.3 | 0.00 | 0.00 | 0.00 | 35 | 1015.6 |
| 20260502213010 | 47 | 41 | 1.7 | 7.0 | 0.00 | 0.00 | 0.00 | 32 | 1015.9 |
| 20260502211523 | 46 | 324 | 6.1 | 8.7 | 0.00 | 0.00 | 0.00 | 34 | 1016.0 |
| 20260502210027 | 46 | 330 | 4.3 | 7.8 | 0.00 | 0.00 | 0.00 | 34 | 1016.0 |
| 20260502204526 | 46 | 321 | 3.5 | 10.4 | 0.00 | 0.00 | 0.00 | 36 | 1016.1 |
| 20260502203027 | 46 | 259 | 4.3 | 7.8 | 0.00 | 0.00 | 0.00 | 36 | 1016.2 |
| 20260502201525 | 45 | 293 | 4.3 | 9.6 | 0.00 | 0.00 | 0.00 | 38 | 1016.3 |
| 20260502200024 | 46 | 309 | 5.2 | 10.4 | 0.00 | 0.00 | 0.00 | 37 | 1016.4 |
| 20260502194528 | 46 | 358 | 3.5 | 9.6 | 0.00 | 0.00 | 0.00 | 40 | 1016.7 |
| 20260502193026 | 45 | 343 | 4.3 | 10.4 | 0.00 | 0.00 | 0.00 | 40 | 1016.9 |
| 20260502191528 | 46 | 305 | 4.3 | 8.7 | 0.00 | 0.00 | 0.00 | 37 | 1016.9 |
| 20260502190025 | 46 | 309 | 4.3 | 7.8 | 0.00 | 0.00 | 0.00 | 39 | 1016.9 |
| 20260502184550 | 46 | 317 | 3.5 | 8.7 | 0.00 | 0.00 | 0.00 | 38 | 1017.0 |
| 20260502183026 | 46 | 307 | 4.3 | 9.6 | 0.00 | 0.00 | 0.00 | 36 | 1017.1 |
| 20260502181530 | 45 | 283 | 3.5 | 8.7 | 0.00 | 0.00 | 0.00 | 36 | 1017.2 |
| 20260502163032 | 43 | 8 | 4.3 | 8.7 | 0.00 | 0.00 | 0.00 | 46 | 1018.0 |
| 20260502161527 | 43 | 300 | 5.2 | 9.6 | 0.00 | 0.00 | 0.00 | 42 | 1018.2 |
| 20260502151525 | 41 | 290 | 2.6 | 7.8 | 0.00 | 0.00 | 0.00 | 51 | 1018.6 |
| 20260502123006 | 31 | 148 | 0.0 | 1.7 | 0.00 | 0.00 | 0.00 | 96 | 1019.0 |
| 20260502121511 | 30 | 125 | 0.0 | 0.0 | 0.00 | 0.00 | 0.00 | 96 | 1018.9 |
| 20260502114525 | 27 | 125 | 0.0 | 0.0 | 0.00 | 0.00 | 0.00 | 96 | 1018.9 |
| 20260502113028 | 27 | 125 | 0.0 | 0.0 | 0.00 | 0.00 | 0.00 | 96 | 1018.7 |
| 20260502111526 | 26 | 125 | 0.0 | 0.0 | 0.00 | 0.00 | 0.00 | 96 | 1018.7 |
| 20260502110010 | 26 | 111 | 0.0 | 0.0 | 0.00 | 0.00 | 0.00 | 95 | 1018.6 |
| 20260502104536 | 26 | 112 | 0.0 | 0.0 | 0.00 | 0.00 | 0.00 | 95 | 1018.5 |
| 20260502103028 | 26 | 111 | 0.0 | 0.0 | 0.00 | 0.00 | 0.00 | 95 | 1018.7 |
| 20260502101528 | 26 | 111 | 0.0 | 0.0 | 0.00 | 0.00 | 0.00 | 95 | 1018.7 |
| 20260502091528 | 27 | 110 | 0.0 | 0.0 | 0.00 | 0.00 | 0.00 | 95 | 1018.3 |
| 20260502071526 | 28 | 102 | 0.0 | 0.9 | 0.00 | 0.00 | 0.00 | 93 | 1018.0 |
| 20260502070032 | 28 | 102 | 0.0 | 0.0 | 0.00 | 0.00 | 0.00 | 93 | 1018.0 |
| 20260502064528 | 28 | 102 | 0.0 | 0.0 | 0.00 | 0.00 | 0.00 | 92 | 1018.1 |
| 20260502063030 | 29 | 102 | 0.0 | 0.0 | 0.00 | 0.00 | 0.00 | 92 | 1018.2 |
| 20260502061529 | 29 | 102 | 0.0 | 1.7 | 0.00 | 0.00 | 0.00 | 92 | 1018.0 |
| 20260502060028 | 29 | 93 | 0.0 | 0.9 | 0.00 | 0.00 | 0.00 | 91 | 1018.1 |
| 20260502054525 | 30 | 132 | 0.0 | 0.9 | 0.00 | 0.00 | 0.00 | 91 | 1018.2 |
| 20260502053003 | 30 | 137 | 0.0 | 0.0 | 0.00 | 0.00 | 0.00 | 90 | 1018.1 |
| 20260502051520 | 31 | 127 | 0.0 | 0.0 | 0.00 | 0.00 | 0.00 | 89 | 1018.1 |
| 20260502050022 | 32 | 148 | 0.0 | 0.0 | 0.00 | 0.00 | 0.00 | 87 | 1018.0 |
| 20260502044527 | 34 | 190 | 0.0 | 0.0 | 0.00 | 0.00 | 0.00 | 85 | 1017.9 |
| 20260502043023 | 35 | 277 | 0.0 | 1.7 | 0.00 | 0.00 | 0.00 | 86 | 1018.0 |
| 20260502041505 | 35 | 281 | 0.9 | 1.7 | 0.00 | 0.00 | 0.00 | 85 | 1017.9 |
| 20260502040008 | 35 | 275 | 0.9 | 2.6 | 0.00 | 0.00 | 0.00 | 84 | 1017.9 |
| 20260502034528 | 36 | 274 | 0.0 | 2.6 | 0.00 | 0.00 | 0.00 | 84 | 1018.0 |
| 20260502033030 | 36 | 275 | 1.7 | 3.5 | 0.00 | 0.00 | 0.00 | 83 | 1018.1 |
| 20260502031526 | 36 | 301 | 0.9 | 3.5 | 0.00 | 0.00 | 0.00 | 82 | 1018.1 |
| 20260502030006 | 36 | 281 | 1.7 | 4.3 | 0.00 | 0.00 | 0.00 | 81 | 1018.1 |
| 20260502024528 | 37 | 281 | 2.6 | 4.3 | 0.00 | 0.00 | 0.00 | 80 | 1018.2 |
| 20260502023027 | 37 | 296 | 2.6 | 6.1 | 0.00 | 0.00 | 0.00 | 80 | 1018.2 |
| 20260502021526 | 37 | 284 | 1.7 | 4.3 | 0.00 | 0.00 | 0.00 | 79 | 1018.3 |
| 20260502020029 | 37 | 289 | 3.5 | 6.1 | 0.00 | 0.00 | 0.00 | 78 | 1018.3 |
| 20260502014519 | 37 | 309 | 2.6 | 6.1 | 0.00 | 0.00 | 0.00 | 77 | 1018.1 |
| 20260502013008 | 38 | 336 | 3.5 | 6.1 | 0.00 | 0.00 | 0.00 | 76 | 1018.1 |
| 20260502011524 | 38 | 305 | 2.6 | 5.2 | 0.00 | 0.00 | 0.00 | 76 | 1017.9 |
| 20260502010023 | 38 | 297 | 4.3 | 6.1 | 0.00 | 0.00 | 0.00 | 75 | 1017.9 |